CZ-4C DEB, 44616

Orbit data source: Space-Track

CZ-4C DEB, 44616 is space debris in SSO originally from a launch on Sat, 31 Mar 2018 UTC launched from the Taiyaun Space Center, China (TSC). Debris objects in space refer to the collection of defunct objects orbiting the Earth. Examples of debris include non-operational satellites, rocket bodies, and fragments generated from explosions, collisions, or faulty payload assembly.

Loading next visibility...
CZ-4C DEB details
Identifier
44616, 2018-031K
Orbit
SSO
Last TLE update12 hours ago
Origin
Flag of CNCNSA (CN / PRC)
ManufacturerUnknown
MissionSpacecraft
Bus & MotorUnknown
MassUnknown
Launch date (UTC)
2018-03-31 (7 years ago)
Launch vehicleUnknown
Launch site
Taiyaun Space Center, China (TSC)
Object type
Payload
Rocket body
Debris
Shape & HBRUnknown
Radar Cross SectionSmall (<0.1 m²)

Expand to show TLE details & history

TLE from 12 hours ago
0 CZ-4C DEB
1 44616U 18031K   24360.97032404  .00010873  00000-0  11500-2 0  9996
2 44616  97.8392  78.1915 0004669 276.5909  83.4777 14.89357253345897
Epoch: 2024-12-25T23:17Z
Definitive object data (Epoch: 2024-12-25T23:17:15.997Z)
Latitude0.00004°
Longitude-6.08159°
Altitude602.61 km
Speed7.558 km/s
True Right ascension05h 12m 45s
True Declination0° 00' 00"
Sunlit
Object was in full shadow at TLE epoch
Visualization TLE readout
Latitude-22.85562°
Longitude171.11296°
Altitude607.565 km
Speed7.555 km/s
Apparent Right ascension19h 26m 26s
Apparent Declination-39° 15' 59"
Sunlit
Object is in daylight
Visualization observer readout
Local Sidereal Time10:50:20
Azimuth106.016° ESE
Elevation-51.261°
Doppler factor1
Orbital elements
Apogee altitude600.225 km
Perigee altitude593.712 km
Semi-major axis6,975.105 km
Eccentricity0.0004669
Inclination97.8392°
RAAN78.1915°
Arg. of periapsis276.5909°
True anomaly83.53086°
Mean anomaly83.4777°
Eccentric anomaly83.50428°
Mean motion3.72578 °/min
BSTAR0.00115
Orbital period96.62 mins
Loading maneuver chart data...
Loading historical data...
Loading historical data...
Loading historical data...
Loading historical data...
Loading historical data...
Loading historical data...
Loading historical data...

CZ-4C DEB Visibility forecast

Observer location: undefined°, undefined

Span
Click to sort rows by Start time (UTC) header in descending order
Start Az.
Max El. time (UTC)
Max El. Az.
Max El.
End time (UTC)
End Az.
7 mins2024-12-26 17:35:59.312Z37.344° NE2024-12-26 17:38:59.312Z87.034° E26.241°2024-12-26 17:42:59.312Z158.36° S
5 mins2024-12-26 19:12:59.312Z326.891° NNW2024-12-26 19:14:59.312Z289.466° WNW20.28°2024-12-26 19:17:59.312Z242.838° WSW
4 mins2024-12-27 04:28:59.312Z94.208° ESE2024-12-27 04:29:59.312Z75.604° E19.411°2024-12-27 04:32:59.312Z24.356° NE
5 mins2024-12-27 06:03:59.312Z218.728° SW2024-12-27 06:05:59.312Z266.117° W27.371°2024-12-27 06:08:59.312Z321.442° NNW
|